Time,TemperatureF,DewpointF,PressureIn,WindDirection,WindDirectionDegrees,WindSpeedMPH,WindSpeedGustMPH,Humidity,HourlyPrecipIn,Conditions,Clouds,dailyrainin,SoftwareType,DateUTC
2013-02-15 00:07:00,33.4,26.0,30.20,East,101,0.0,2.0,74,0.00,,,0.05,weatherlink.com 1.10,2013-02-15 05:07:00,
2013-02-15 00:22:00,32.8,26.0,30.20,East,101,1.0,1.0,76,0.00,,,0.05,weatherlink.com 1.10,2013-02-15 05:22:00,
2013-02-15 00:37:00,32.7,27.0,30.21,East,101,0.0,1.0,78,0.00,,,0.05,weatherlink.com 1.10,2013-02-15 05:37:00,
2013-02-15 00:52:00,32.8,27.0,30.20,East,101,0.0,2.0,79,0.00,,,0.05,weatherlink.com 1.10,2013-02-15 05:52:00,
2013-02-15 01:07:00,32.6,27.0,30.20,East,101,0.0,1.0,79,0.00,,,0.05,weatherlink.com 1.10,2013-02-15 06:07:00,
2013-02-15 01:22:00,32.8,28.0,30.20,East,101,0.0,0.0,81,0.00,,,0.05,weatherlink.com 1.10,2013-02-15 06:22:00,
2013-02-15 01:37:00,32.7,28.0,30.20,East,101,0.0,1.0,82,0.00,,,0.05,weatherlink.com 1.10,2013-02-15 06:37:00,
2013-02-15 01:52:00,32.7,28.0,30.19,East,101,0.0,1.0,82,0.00,,,0.05,weatherlink.com 1.10,2013-02-15 06:52:00,
2013-02-15 02:07:00,32.6,27.0,30.19,East,101,0.0,1.0,81,0.00,,,0.05,weatherlink.com 1.10,2013-02-15 07:07:00,
2013-02-15 02:22:00,32.6,28.0,30.20,East,101,0.0,1.0,82,0.00,,,0.05,weatherlink.com 1.10,2013-02-15 07:22:00,
2013-02-15 02:37:00,32.8,28.0,30.19,East,101,0.0,2.0,82,0.00,,,0.05,weatherlink.com 1.10,2013-02-15 07:37:00,
2013-02-15 02:52:00,32.6,28.0,30.19,East,101,0.0,1.0,83,0.00,,,0.05,weatherlink.com 1.10,2013-02-15 07:52:00,
2013-02-15 03:07:00,32.4,28.0,30.19,East,101,0.0,0.0,83,0.00,,,0.05,weatherlink.com 1.10,2013-02-15 08:07:00,
2013-02-15 03:22:00,32.1,28.0,30.19,East,101,0.0,1.0,83,0.00,,,0.05,weatherlink.com 1.10,2013-02-15 08:22:00,
2013-02-15 03:37:00,31.6,27.0,30.19,East,101,0.0,1.0,84,0.00,,,0.05,weatherlink.com 1.10,2013-02-15 08:37:00,
2013-02-15 03:52:00,31.3,27.0,30.19,East,101,0.0,2.0,84,0.00,,,0.05,weatherlink.com 1.10,2013-02-15 08:52:00,
2013-02-15 04:07:00,31.3,27.0,30.19,East,101,0.0,1.0,84,0.00,,,0.05,weatherlink.com 1.10,2013-02-15 09:07:00,
2013-02-15 04:22:00,31.1,27.0,30.19,East,101,0.0,0.0,84,0.00,,,0.05,weatherlink.com 1.10,2013-02-15 09:22:00,
2013-02-15 04:37:00,31.1,27.0,30.18,East,101,0.0,0.0,84,0.00,,,0.05,weatherlink.com 1.10,2013-02-15 09:37:00,
2013-02-15 04:52:00,31.2,27.0,30.18,ESE,104,0.0,1.0,84,0.00,,,0.05,weatherlink.com 1.10,2013-02-15 09:52:00,
2013-02-15 05:07:00,31.1,27.0,30.19,ESE,104,0.0,1.0,83,0.00,,,0.05,weatherlink.com 1.10,2013-02-15 10:07:00,
2013-02-15 05:22:00,31.9,26.0,30.19,East,94,0.0,3.0,80,0.00,,,0.05,weatherlink.com 1.10,2013-02-15 10:22:00,
2013-02-15 05:37:00,32.2,26.0,30.19,SE,142,1.0,4.0,78,0.00,,,0.05,weatherlink.com 1.10,2013-02-15 10:37:00,
2013-02-15 05:52:00,31.7,26.0,30.19,SSE,155,3.0,3.0,80,0.00,,,0.05,weatherlink.com 1.10,2013-02-15 10:52:00,
2013-02-15 06:07:00,31.2,26.0,30.19,South,173,0.0,4.0,81,0.00,,,0.05,weatherlink.com 1.10,2013-02-15 11:07:00,
2013-02-15 06:22:00,30.9,26.0,30.18,South,173,0.0,2.0,83,0.00,,,0.05,weatherlink.com 1.10,2013-02-15 11:22:00,
2013-02-15 06:37:00,30.6,26.0,30.18,South,173,0.0,1.0,84,0.00,,,0.05,weatherlink.com 1.10,2013-02-15 11:37:00,
2013-02-15 06:53:00,30.3,26.0,30.18,South,173,0.0,3.0,85,0.00,,,0.05,weatherlink.com 1.10,2013-02-15 11:53:00,
2013-02-15 07:08:00,30.5,27.0,30.19,South,173,1.0,4.0,86,0.00,,,0.05,weatherlink.com 1.10,2013-02-15 12:08:00,
2013-02-15 07:23:00,31.5,28.0,30.19,South,170,0.0,3.0,86,0.00,,,0.05,weatherlink.com 1.10,2013-02-15 12:23:00,
2013-02-15 07:38:00,33.5,29.0,30.20,ESE,108,0.0,4.0,83,0.00,,,0.05,weatherlink.com 1.10,2013-02-15 12:38:00,
2013-02-15 07:53:00,34.6,30.0,30.20,ENE,74,3.0,6.0,82,0.00,,,0.05,weatherlink.com 1.10,2013-02-15 12:53:00,
2013-02-15 08:08:00,35.5,30.0,30.20,ENE,72,4.0,7.0,80,0.00,,,0.05,weatherlink.com 1.10,2013-02-15 13:08:00,
2013-02-15 08:23:00,35.9,30.0,30.21,ENE,61,4.0,8.0,79,0.00,,,0.05,weatherlink.com 1.10,2013-02-15 13:23:00,
2013-02-15 08:38:00,36.2,30.0,30.21,East,90,1.0,7.0,79,0.00,,,0.05,weatherlink.com 1.10,2013-02-15 13:38:00,
2013-02-15 08:53:00,36.7,30.0,30.21,East,81,2.0,4.0,78,0.00,,,0.05,weatherlink.com 1.10,2013-02-15 13:53:00,
2013-02-15 09:08:00,37.4,30.0,30.21,SE,145,2.0,5.0,76,0.00,,,0.05,weatherlink.com 1.10,2013-02-15 14:08:00,
2013-02-15 09:23:00,38.7,31.0,30.22,SE,138,2.0,5.0,74,0.00,,,0.05,weatherlink.com 1.10,2013-02-15 14:23:00,
2013-02-15 09:38:00,40.2,32.0,30.21,ENE,76,2.0,5.0,72,0.00,,,0.05,weatherlink.com 1.10,2013-02-15 14:38:00,
2013-02-15 09:53:00,41.1,32.0,30.21,East,95,0.0,3.0,71,0.00,,,0.05,weatherlink.com 1.10,2013-02-15 14:53:00,
2013-02-15 10:08:00,42.2,32.0,30.21,ENE,72,1.0,3.0,68,0.00,,,0.00,weatherlink.com 1.10,2013-02-15 15:08:00,
2013-02-15 10:23:00,44.2,33.0,30.20,NNE,29,2.0,5.0,64,0.00,,,0.00,weatherlink.com 1.10,2013-02-15 15:23:00,
2013-02-15 10:38:00,46.9,33.0,30.20,East,92,2.0,3.0,59,0.00,,,0.00,weatherlink.com 1.10,2013-02-15 15:38:00,
2013-02-15 10:53:00,48.1,32.0,30.19,SE,136,1.0,7.0,55,0.00,,,0.00,weatherlink.com 1.10,2013-02-15 15:53:00,
2013-02-15 11:08:00,48.9,32.0,30.19,East,82,2.0,8.0,52,0.00,,,0.00,weatherlink.com 1.10,2013-02-15 16:08:00,
2013-02-15 11:23:00,49.0,32.0,30.18,East,79,2.0,8.0,53,0.00,,,0.00,weatherlink.com 1.10,2013-02-15 16:23:00,
2013-02-15 11:38:00,49.1,33.0,30.18,East,84,1.0,5.0,54,0.00,,,0.00,weatherlink.com 1.10,2013-02-15 16:38:00,
2013-02-15 11:53:00,49.3,32.0,30.17,East,96,2.0,8.0,51,0.00,,,0.00,weatherlink.com 1.10,2013-02-15 16:53:00,
2013-02-15 12:08:00,48.7,33.0,30.17,SE,140,1.0,8.0,54,0.00,,,0.00,weatherlink.com 1.10,2013-02-15 17:08:00,
2013-02-15 12:23:00,48.4,33.0,30.16,SE,140,5.0,9.0,55,0.00,,,0.00,weatherlink.com 1.10,2013-02-15 17:23:00,
2013-02-15 12:38:00,47.9,33.0,30.15,ESE,120,9.0,9.0,57,0.00,,,0.00,weatherlink.com 1.10,2013-02-15 17:38:00,
2013-02-15 12:53:00,47.6,33.0,30.15,ESE,108,4.0,8.0,57,0.00,,,0.00,weatherlink.com 1.10,2013-02-15 17:53:00,
2013-02-15 13:08:00,47.8,33.0,30.14,ESE,114,1.0,6.0,57,0.00,,,0.00,weatherlink.com 1.10,2013-02-15 18:08:00,
2013-02-15 13:23:00,48.7,33.0,30.14,NNE,12,4.0,5.0,55,0.00,,,0.00,weatherlink.com 1.10,2013-02-15 18:23:00,
2013-02-15 13:38:00,49.6,33.0,30.13,South,184,0.0,6.0,54,0.00,,,0.00,weatherlink.com 1.10,2013-02-15 18:38:00,
2013-02-15 13:53:00,50.2,32.0,30.13,South,177,0.0,11.0,50,0.00,,,0.00,weatherlink.com 1.10,2013-02-15 18:53:00,
2013-02-15 14:08:00,51.2,31.0,30.13,East,80,5.0,7.0,47,0.00,,,0.00,weatherlink.com 1.10,2013-02-15 19:08:00,
2013-02-15 14:23:00,51.5,32.0,30.12,South,183,5.0,6.0,47,0.00,,,0.00,weatherlink.com 1.10,2013-02-15 19:23:00,
2013-02-15 14:38:00,52.3,31.0,30.12,SSW,198,0.0,5.0,44,0.00,,,0.00,weatherlink.com 1.10,2013-02-15 19:38:00,
2013-02-15 14:54:00,52.4,29.0,30.11,ENE,70,2.0,6.0,41,0.00,,,0.00,weatherlink.com 1.10,2013-02-15 19:54:00,
2013-02-15 15:09:00,52.1,29.0,30.11,NE,49,1.0,7.0,42,0.00,,,0.00,weatherlink.com 1.10,2013-02-15 20:09:00,
2013-02-15 15:24:00,51.6,30.0,30.11,NNE,30,4.0,7.0,44,0.00,,,0.00,weatherlink.com 1.10,2013-02-15 20:24:00,
2013-02-15 15:39:00,50.5,30.0,30.11,ENE,66,1.0,6.0,46,0.00,,,0.00,weatherlink.com 1.10,2013-02-15 20:39:00,
2013-02-15 15:54:00,49.4,30.0,30.11,SE,140,1.0,6.0,48,0.00,,,0.00,weatherlink.com 1.10,2013-02-15 20:54:00,
2013-02-15 16:09:00,49.1,29.0,30.12,ENE,65,3.0,5.0,46,0.00,,,0.00,weatherlink.com 1.10,2013-02-15 21:09:00,
2013-02-15 16:24:00,49.0,29.0,30.12,SE,134,1.0,8.0,46,0.00,,,0.00,weatherlink.com 1.10,2013-02-15 21:24:00,
2013-02-15 16:39:00,48.6,30.0,30.13,ENE,72,1.0,8.0,48,0.00,,,0.00,weatherlink.com 1.10,2013-02-15 21:39:00,
2013-02-15 16:54:00,47.8,29.0,30.13,East,101,3.0,6.0,49,0.00,,,0.00,weatherlink.com 1.10,2013-02-15 21:54:00,
2013-02-15 17:09:00,47.3,30.0,30.13,East,86,3.0,6.0,51,0.00,,,0.00,weatherlink.com 1.10,2013-02-15 22:09:00,
2013-02-15 17:24:00,46.9,29.0,30.14,East,100,2.0,3.0,51,0.00,,,0.00,weatherlink.com 1.10,2013-02-15 22:24:00,
2013-02-15 17:39:00,46.7,30.0,30.14,South,179,1.0,3.0,52,0.00,,,0.00,weatherlink.com 1.10,2013-02-15 22:39:00,
2013-02-15 17:54:00,46.7,27.0,30.14,SE,129,1.0,10.0,47,0.00,,,0.00,weatherlink.com 1.10,2013-02-15 22:54:00,
2013-02-15 18:09:00,46.3,27.0,30.14,SSW,201,2.0,6.0,47,0.00,,,0.00,weatherlink.com 1.10,2013-02-15 23:09:00,
2013-02-15 18:24:00,44.6,27.0,30.15,SSW,198,4.0,5.0,51,0.00,,,0.00,weatherlink.com 1.10,2013-02-15 23:24:00,
2013-02-15 18:39:00,43.4,27.0,30.15,SSW,207,3.0,7.0,52,0.00,,,0.00,weatherlink.com 1.10,2013-02-15 23:39:00,
2013-02-15 18:54:00,42.5,26.0,30.14,SSW,207,1.0,3.0,52,0.00,,,0.00,weatherlink.com 1.10,2013-02-15 23:54:00,
2013-02-15 19:09:00,42.0,25.0,30.15,SSW,205,3.0,3.0,52,0.00,,,0.00,weatherlink.com 1.10,2013-02-16 00:09:00,
2013-02-15 19:24:00,42.1,26.0,30.14,SSW,203,1.0,2.0,54,0.00,,,0.00,weatherlink.com 1.10,2013-02-16 00:24:00,
2013-02-15 19:39:00,41.8,27.0,30.14,SSW,203,1.0,2.0,57,0.00,,,0.00,weatherlink.com 1.10,2013-02-16 00:39:00,
2013-02-15 19:54:00,41.1,25.0,30.14,SSW,198,0.0,3.0,54,0.00,,,0.00,weatherlink.com 1.10,2013-02-16 00:54:00,
2013-02-15 20:09:00,41.5,26.0,30.14,South,191,1.0,3.0,54,0.00,,,0.00,weatherlink.com 1.10,2013-02-16 01:09:00,
2013-02-15 20:24:00,41.6,25.0,30.14,South,191,2.0,3.0,51,0.00,,,0.00,weatherlink.com 1.10,2013-02-16 01:24:00,
2013-02-15 20:39:00,42.1,25.0,30.15,South,188,3.0,5.0,51,0.00,,,0.00,weatherlink.com 1.10,2013-02-16 01:39:00,
2013-02-15 20:54:00,42.2,25.0,30.15,WSW,246,2.0,4.0,51,0.00,,,0.00,weatherlink.com 1.10,2013-02-16 01:54:00,
2013-02-15 21:09:00,41.8,25.0,30.14,South,188,0.0,3.0,52,0.00,,,0.00,weatherlink.com 1.10,2013-02-16 02:09:00,
2013-02-15 21:24:00,41.5,24.0,30.15,SSW,198,2.0,4.0,51,0.00,,,0.00,weatherlink.com 1.10,2013-02-16 02:24:00,
2013-02-15 21:39:00,41.2,26.0,30.15,SSW,197,1.0,1.0,54,0.00,,,0.00,weatherlink.com 1.10,2013-02-16 02:39:00,
2013-02-15 21:54:00,41.2,25.0,30.15,SSW,194,0.0,7.0,53,0.00,,,0.00,weatherlink.com 1.10,2013-02-16 02:54:00,
2013-02-15 22:09:00,41.1,28.0,30.16,South,189,4.0,7.0,61,0.00,,,0.00,weatherlink.com 1.10,2013-02-16 03:09:00,
2013-02-15 22:24:00,39.7,31.0,30.16,SW,222,2.0,10.0,70,0.00,,,0.00,weatherlink.com 1.10,2013-02-16 03:24:00,
2013-02-15 22:39:00,38.7,31.0,30.18,West,266,2.0,5.0,74,0.00,,,0.00,weatherlink.com 1.10,2013-02-16 03:39:00,
2013-02-15 22:54:00,38.0,31.0,30.17,SSW,206,2.0,8.0,76,0.00,,,0.00,weatherlink.com 1.10,2013-02-16 03:54:00,
2013-02-15 23:09:00,37.0,32.0,30.18,SSE,166,1.0,7.0,82,0.01,,,0.01,weatherlink.com 1.10,2013-02-16 04:09:00,
2013-02-15 23:24:00,36.1,32.0,30.19,SSW,197,0.0,4.0,85,0.02,,,0.02,weatherlink.com 1.10,2013-02-16 04:24:00,
2013-02-15 23:39:00,35.4,32.0,30.19,SSW,204,0.0,3.0,88,0.03,,,0.03,weatherlink.com 1.10,2013-02-16 04:39:00,
2013-02-15 23:54:00,34.8,32.0,30.18,SW,215,1.0,2.0,90,0.04,,,0.04,weatherlink.com 1.10,2013-02-16 04:54:00,